Time,TemperatureF,DewpointF,PressureIn,WindDirection,WindDirectionDegrees,WindSpeedMPH,WindSpeedGustMPH,Humidity,HourlyPrecipIn,Conditions,Clouds,dailyrainin,SoftwareType,DateUTC
2013-02-16 00:00:00,31.3,29.5,29.95,WNW,289,0.0,0.0,93,0.00,,,0.00,WeatherCatV1.02B3,2013-02-16 05:00:00,
2013-02-16 00:05:00,31.1,29.3,29.95,WNW,289,0.0,0.0,93,0.00,,,0.00,WeatherCatV1.02B3,2013-02-16 05:05:00,
2013-02-16 00:10:00,31.0,29.2,29.95,WNW,289,0.0,3.0,93,0.00,,,0.00,WeatherCatV1.02B3,2013-02-16 05:10:00,
2013-02-16 00:15:00,31.0,29.2,29.96,WNW,289,0.0,0.0,93,0.00,,,0.00,WeatherCatV1.02B3,2013-02-16 05:15:00,
2013-02-16 00:20:00,31.0,29.2,29.96,WNW,289,0.0,0.0,93,0.00,,,0.00,WeatherCatV1.02B3,2013-02-16 05:20:00,
2013-02-16 00:25:00,31.0,29.2,29.96,WNW,289,0.0,0.0,93,0.00,,,0.00,WeatherCatV1.02B3,2013-02-16 05:25:00,
2013-02-16 00:30:00,31.0,29.2,29.96,WNW,289,0.0,0.0,93,0.00,,,0.00,WeatherCatV1.02B3,2013-02-16 05:30:00,
2013-02-16 00:35:00,31.1,29.3,29.95,WNW,289,0.0,0.0,93,0.00,,,0.00,WeatherCatV1.02B3,2013-02-16 05:35:00,
2013-02-16 00:40:00,31.1,29.3,29.95,WNW,289,0.0,0.0,93,0.00,,,0.00,WeatherCatV1.02B3,2013-02-16 05:40:00,
2013-02-16 00:45:00,31.1,29.3,29.95,WNW,289,0.0,0.0,93,0.00,,,0.00,WeatherCatV1.02B3,2013-02-16 05:45:00,
2013-02-16 00:50:00,31.2,29.7,29.95,WNW,289,0.0,0.0,94,0.00,,,0.00,WeatherCatV1.02B3,2013-02-16 05:50:00,
2013-02-16 00:55:00,31.1,29.6,29.95,WNW,289,0.0,0.0,94,0.00,,,0.00,WeatherCatV1.02B3,2013-02-16 05:55:00,
2013-02-16 01:00:00,31.2,29.7,29.96,WNW,289,0.0,0.0,94,0.00,,,0.00,WeatherCatV1.02B3,2013-02-16 06:00:00,
2013-02-16 01:05:00,31.4,29.9,29.96,WNW,289,0.0,0.0,94,0.00,,,0.00,WeatherCatV1.02B3,2013-02-16 06:05:00,
2013-02-16 01:10:00,31.4,29.9,29.96,WNW,289,0.0,0.0,94,0.00,,,0.00,WeatherCatV1.02B3,2013-02-16 06:10:00,
2013-02-16 01:15:00,31.5,30.0,29.96,WNW,289,0.0,0.0,94,0.00,,,0.00,WeatherCatV1.02B3,2013-02-16 06:15:00,
2013-02-16 01:20:00,31.8,30.3,29.96,WNW,289,0.0,1.0,94,0.00,,,0.00,WeatherCatV1.02B3,2013-02-16 06:20:00,
2013-02-16 01:25:00,31.9,30.4,29.95,WNW,289,0.0,0.0,94,0.00,,,0.00,WeatherCatV1.02B3,2013-02-16 06:25:00,
2013-02-16 01:30:00,31.9,30.4,29.95,WNW,289,0.0,0.0,94,0.00,,,0.00,WeatherCatV1.02B3,2013-02-16 06:30:00,
2013-02-16 01:35:00,31.9,30.4,29.95,WNW,289,0.0,0.0,94,0.00,,,0.00,WeatherCatV1.02B3,2013-02-16 06:35:00,
2013-02-16 01:40:00,31.9,30.4,29.95,WNW,289,0.0,0.0,94,0.00,,,0.00,WeatherCatV1.02B3,2013-02-16 06:40:00,
2013-02-16 01:45:00,31.9,30.4,29.95,WNW,289,0.0,0.0,94,0.00,,,0.00,WeatherCatV1.02B3,2013-02-16 06:45:00,
2013-02-16 01:50:00,31.9,30.4,29.95,WNW,289,0.0,0.0,94,0.00,,,0.00,WeatherCatV1.02B3,2013-02-16 06:50:00,
2013-02-16 01:55:00,31.9,30.4,29.95,WNW,289,0.0,0.0,94,0.00,,,0.00,WeatherCatV1.02B3,2013-02-16 06:55:00,
2013-02-16 01:59:00,31.9,30.4,29.95,WNW,289,0.0,0.0,94,0.00,,,0.00,WeatherCatV1.02B3,2013-02-16 06:59:00,
2013-02-16 02:04:00,32.0,30.5,29.95,WNW,289,0.0,0.0,94,0.00,,,0.00,WeatherCatV1.02B3,2013-02-16 07:04:00,
2013-02-16 02:09:00,31.9,30.4,29.95,WNW,289,0.0,0.0,94,0.00,,,0.00,WeatherCatV1.02B3,2013-02-16 07:09:00,
2013-02-16 02:14:00,32.0,32.0,29.95,WNW,289,0.0,2.0,100,0.00,,,0.00,WeatherCatV1.02B3,2013-02-16 07:14:00,
2013-02-16 02:19:00,32.1,30.6,29.95,WNW,289,0.0,0.0,94,0.00,,,0.00,WeatherCatV1.02B3,2013-02-16 07:19:00,
2013-02-16 02:24:00,32.1,30.6,29.94,WNW,289,0.0,0.0,94,0.00,,,0.00,WeatherCatV1.02B3,2013-02-16 07:24:00,
2013-02-16 02:29:00,32.0,30.5,29.92,WNW,289,0.0,2.0,94,0.00,,,0.00,WeatherCatV1.02B3,2013-02-16 07:29:00,
2013-02-16 02:34:00,31.9,30.4,29.93,WNW,289,0.0,0.0,94,0.00,,,0.00,WeatherCatV1.02B3,2013-02-16 07:34:00,
2013-02-16 02:39:00,32.0,30.5,29.93,WNW,289,0.0,0.0,94,0.00,,,0.00,WeatherCatV1.02B3,2013-02-16 07:39:00,
2013-02-16 02:44:00,32.1,30.3,29.94,WNW,289,0.0,0.0,93,0.00,,,0.00,WeatherCatV1.02B3,2013-02-16 07:44:00,
2013-02-16 02:49:00,32.3,30.5,29.94,WNW,289,0.0,2.0,93,0.00,,,0.00,WeatherCatV1.02B3,2013-02-16 07:49:00,
2013-02-16 02:54:00,32.4,30.3,29.95,WNW,289,0.0,1.0,92,0.00,,,0.00,WeatherCatV1.02B3,2013-02-16 07:54:00,
2013-02-16 02:59:00,32.5,30.2,29.95,WNW,289,0.0,4.0,91,0.00,,,0.00,WeatherCatV1.02B3,2013-02-16 07:59:00,
2013-02-16 03:04:00,32.6,30.0,29.96,WNW,289,2.0,3.0,90,0.00,,,0.00,WeatherCatV1.02B3,2013-02-16 08:04:00,
2013-02-16 03:09:00,32.8,29.9,29.96,WNW,290,0.0,5.0,89,0.00,,,0.00,WeatherCatV1.02B3,2013-02-16 08:09:00,
2013-02-16 03:14:00,32.9,30.0,29.95,North,355,0.0,0.0,89,0.00,,,0.00,WeatherCatV1.02B3,2013-02-16 08:14:00,
2013-02-16 03:19:00,32.9,29.7,29.95,NW,309,0.0,3.0,88,0.00,,,0.00,WeatherCatV1.02B3,2013-02-16 08:19:00,
2013-02-16 03:24:00,33.1,29.7,29.95,WNW,286,2.0,3.0,87,0.00,,,0.00,WeatherCatV1.02B3,2013-02-16 08:24:00,
2013-02-16 03:29:00,33.3,29.6,29.96,WNW,287,5.0,6.0,86,0.00,,,0.00,WeatherCatV1.02B3,2013-02-16 08:29:00,
2013-02-16 03:34:00,33.8,29.8,29.95,WNW,294,6.0,10.0,85,0.00,,,0.00,WeatherCatV1.02B3,2013-02-16 08:34:00,
2013-02-16 03:39:00,33.8,29.8,29.95,WNW,289,0.0,5.0,85,0.00,,,0.00,WeatherCatV1.02B3,2013-02-16 08:39:00,
2013-02-16 03:44:00,33.7,30.0,29.95,WSW,254,2.0,9.0,86,0.00,,,0.00,WeatherCatV1.02B3,2013-02-16 08:44:00,
2013-02-16 03:49:00,33.5,29.8,29.95,NNW,341,3.0,7.0,86,0.00,,,0.00,WeatherCatV1.02B3,2013-02-16 08:49:00,
2013-02-16 03:54:00,33.4,30.0,29.95,WNW,296,0.0,5.0,87,0.00,,,0.00,WeatherCatV1.02B3,2013-02-16 08:54:00,
2013-02-16 03:59:00,33.3,29.9,29.96,WNW,301,3.0,8.0,87,0.00,,,0.00,WeatherCatV1.02B3,2013-02-16 08:59:00,
2013-02-16 04:04:00,33.2,30.0,29.95,NNW,337,0.0,6.0,88,0.00,,,0.00,WeatherCatV1.02B3,2013-02-16 09:04:00,
2013-02-16 04:09:00,33.1,29.9,29.96,North,355,0.0,6.0,88,0.00,,,0.00,WeatherCatV1.02B3,2013-02-16 09:09:00,
2013-02-16 04:14:00,33.0,29.8,29.95,North,355,0.0,5.0,88,0.00,,,0.00,WeatherCatV1.02B3,2013-02-16 09:14:00,
2013-02-16 04:19:00,32.8,29.9,29.95,NNW,338,5.0,5.0,89,0.00,,,0.00,WeatherCatV1.02B3,2013-02-16 09:19:00,
2013-02-16 04:24:00,32.8,29.9,29.95,North,355,0.0,3.0,89,0.00,,,0.00,WeatherCatV1.02B3,2013-02-16 09:24:00,
2013-02-16 04:29:00,32.6,29.7,29.95,North,351,3.0,8.0,89,0.00,,,0.00,WeatherCatV1.02B3,2013-02-16 09:29:00,
2013-02-16 04:34:00,32.6,30.0,29.94,North,355,3.0,6.0,90,0.00,,,0.00,WeatherCatV1.02B3,2013-02-16 09:34:00,
2013-02-16 04:39:00,32.5,29.9,29.94,NNW,340,2.0,5.0,90,0.00,,,0.00,WeatherCatV1.02B3,2013-02-16 09:39:00,
2013-02-16 04:44:00,32.4,29.8,29.94,NNW,348,0.0,8.0,90,0.00,,,0.00,WeatherCatV1.02B3,2013-02-16 09:44:00,
2013-02-16 04:49:00,32.4,29.8,29.94,NNE,26,0.0,0.0,90,0.00,,,0.00,WeatherCatV1.02B3,2013-02-16 09:49:00,
2013-02-16 04:54:00,32.3,30.0,29.95,West,274,3.0,3.0,91,0.00,,,0.00,WeatherCatV1.02B3,2013-02-16 09:54:00,
2013-02-16 04:59:00,32.2,29.9,29.95,WNW,302,0.0,8.0,91,0.00,,,0.00,WeatherCatV1.02B3,2013-02-16 09:59:00,
2013-02-16 05:04:00,32.2,29.9,29.95,NW,321,1.0,7.0,91,0.00,,,0.00,WeatherCatV1.02B3,2013-02-16 10:04:00,
2013-02-16 05:09:00,32.1,30.0,29.95,NNW,347,3.0,4.0,92,0.00,,,0.00,WeatherCatV1.02B3,2013-02-16 10:09:00,
2013-02-16 05:14:00,32.0,29.9,29.95,NW,317,1.0,1.0,92,0.00,,,0.00,WeatherCatV1.02B3,2013-02-16 10:14:00,
2013-02-16 05:19:00,32.0,29.9,29.96,WNW,293,0.0,0.0,92,0.00,,,0.00,WeatherCatV1.02B3,2013-02-16 10:19:00,
2013-02-16 05:24:00,31.9,29.8,29.95,NW,317,0.0,2.0,92,0.00,,,0.00,WeatherCatV1.02B3,2013-02-16 10:24:00,
2013-02-16 05:29:00,31.9,30.1,29.95,NW,324,0.0,3.0,93,0.00,,,0.00,WeatherCatV1.02B3,2013-02-16 10:29:00,
2013-02-16 05:34:00,31.9,30.1,29.95,NNE,19,0.0,6.0,93,0.00,,,0.00,WeatherCatV1.02B3,2013-02-16 10:34:00,
2013-02-16 05:39:00,31.8,30.0,29.95,NW,313,0.0,5.0,93,0.00,,,0.00,WeatherCatV1.02B3,2013-02-16 10:39:00,
2013-02-16 05:44:00,31.8,30.0,29.95,NNW,328,1.0,3.0,93,0.00,,,0.00,WeatherCatV1.02B3,2013-02-16 10:44:00,
2013-02-16 05:49:00,31.8,30.0,29.95,NNW,342,1.0,3.0,93,0.00,,,0.00,WeatherCatV1.02B3,2013-02-16 10:49:00,
2013-02-16 05:54:00,31.7,29.9,29.95,NNE,17,3.0,5.0,93,0.00,,,0.00,WeatherCatV1.02B3,2013-02-16 10:54:00,
2013-02-16 05:59:00,31.6,29.8,29.95,WNW,302,0.0,4.0,93,0.00,,,0.00,WeatherCatV1.02B3,2013-02-16 10:59:00,
2013-02-16 06:04:00,31.6,29.8,29.95,NW,320,0.0,2.0,93,0.00,,,0.00,WeatherCatV1.02B3,2013-02-16 11:04:00,
2013-02-16 06:09:00,31.5,29.7,29.95,North,5,0.0,4.0,93,0.00,,,0.00,WeatherCatV1.02B3,2013-02-16 11:09:00,
2013-02-16 06:15:00,31.5,29.7,29.95,WNW,302,0.0,2.0,93,0.00,,,0.00,WeatherCatV1.02B3,2013-02-16 11:15:00,
2013-02-16 06:21:00,31.4,29.9,29.95,NNE,33,0.0,0.0,94,0.00,,,0.00,WeatherCatV1.02B3,2013-02-16 11:21:00,
2013-02-16 06:26:00,31.4,29.9,29.95,NW,315,0.0,3.0,94,0.00,,,0.00,WeatherCatV1.02B3,2013-02-16 11:26:00,
2013-02-16 06:31:00,31.4,29.9,29.95,NNE,12,0.0,3.0,94,0.00,,,0.00,WeatherCatV1.02B3,2013-02-16 11:31:00,
2013-02-16 06:36:00,31.3,29.8,29.95,NNE,13,1.0,3.0,94,0.00,,,0.00,WeatherCatV1.02B3,2013-02-16 11:36:00,
2013-02-16 06:41:00,31.3,29.8,29.95,NE,53,0.0,0.0,94,0.00,,,0.00,WeatherCatV1.02B3,2013-02-16 11:41:00,
2013-02-16 06:46:00,31.2,29.7,29.95,NE,44,0.0,2.0,94,0.00,,,0.00,WeatherCatV1.02B3,2013-02-16 11:46:00,
2013-02-16 06:51:00,31.2,29.7,29.95,North,355,0.0,0.0,94,0.00,,,0.00,WeatherCatV1.02B3,2013-02-16 11:51:00,
2013-02-16 06:56:00,31.2,29.7,29.95,North,5,0.0,2.0,94,0.00,,,0.00,WeatherCatV1.02B3,2013-02-16 11:56:00,
2013-02-16 07:01:00,31.2,29.7,29.95,North,5,0.0,0.0,94,0.00,,,0.00,WeatherCatV1.02B3,2013-02-16 12:01:00,
2013-02-16 07:06:00,31.1,29.6,29.95,North,5,0.0,0.0,94,0.00,,,0.00,WeatherCatV1.02B3,2013-02-16 12:06:00,
2013-02-16 07:11:00,31.1,29.6,29.95,NW,319,0.0,1.0,94,0.00,,,0.00,WeatherCatV1.02B3,2013-02-16 12:11:00,
2013-02-16 07:16:00,31.1,29.6,29.95,North,355,0.0,2.0,94,0.00,,,0.00,WeatherCatV1.02B3,2013-02-16 12:16:00,
2013-02-16 07:21:00,31.0,29.5,29.96,North,355,0.0,0.0,94,0.00,,,0.00,WeatherCatV1.02B3,2013-02-16 12:21:00,
2013-02-16 07:26:00,31.0,29.5,29.96,North,349,1.0,3.0,94,0.00,,,0.00,WeatherCatV1.02B3,2013-02-16 12:26:00,
2013-02-16 07:31:00,31.0,29.5,29.96,NNE,15,0.0,0.0,94,0.00,,,0.00,WeatherCatV1.02B3,2013-02-16 12:31:00,
2013-02-16 07:36:00,30.9,29.4,29.97,NNE,15,0.0,0.0,94,0.00,,,0.00,WeatherCatV1.02B3,2013-02-16 12:36:00,
2013-02-16 07:41:00,31.0,29.5,29.97,NNW,335,3.0,4.0,94,0.00,,,0.00,WeatherCatV1.02B3,2013-02-16 12:41:00,
2013-02-16 07:46:00,31.0,29.5,29.97,NW,325,0.0,2.0,94,0.00,,,0.00,WeatherCatV1.02B3,2013-02-16 12:46:00,
2013-02-16 07:51:00,30.9,29.4,29.97,NW,325,0.0,0.0,94,0.00,,,0.00,WeatherCatV1.02B3,2013-02-16 12:51:00,
2013-02-16 07:56:00,31.0,29.5,29.97,NW,325,0.0,0.0,94,0.00,,,0.00,WeatherCatV1.02B3,2013-02-16 12:56:00,
2013-02-16 08:01:00,31.0,29.5,29.97,NW,321,0.0,3.0,94,0.00,,,0.00,WeatherCatV1.02B3,2013-02-16 13:01:00,
2013-02-16 08:06:00,31.1,29.6,29.97,NW,321,0.0,2.0,94,0.00,,,0.00,WeatherCatV1.02B3,2013-02-16 13:06:00,
2013-02-16 08:11:00,31.2,29.7,29.97,NW,320,0.0,4.0,94,0.00,,,0.00,WeatherCatV1.02B3,2013-02-16 13:11:00,
2013-02-16 08:16:00,31.3,29.8,29.97,NW,320,0.0,0.0,94,0.00,,,0.00,WeatherCatV1.02B3,2013-02-16 13:16:00,
2013-02-16 08:21:00,31.4,29.9,29.97,NW,320,0.0,0.0,94,0.00,,,0.00,WeatherCatV1.02B3,2013-02-16 13:21:00,
2013-02-16 08:26:00,31.5,30.0,29.97,NW,320,0.0,0.0,94,0.00,,,0.00,WeatherCatV1.02B3,2013-02-16 13:26:00,
2013-02-16 08:31:00,31.5,30.0,29.97,NNW,330,0.0,3.0,94,0.00,,,0.00,WeatherCatV1.02B3,2013-02-16 13:31:00,
2013-02-16 08:36:00,31.6,30.1,29.97,NNW,330,1.0,1.0,94,0.00,,,0.00,WeatherCatV1.02B3,2013-02-16 13:36:00,
2013-02-16 08:41:00,31.6,30.1,29.97,NNW,330,0.0,0.0,94,0.00,,,0.00,WeatherCatV1.02B3,2013-02-16 13:41:00,
2013-02-16 08:46:00,31.7,30.2,29.96,NW,313,0.0,3.0,94,0.00,,,0.00,WeatherCatV1.02B3,2013-02-16 13:46:00,
2013-02-16 08:51:00,31.6,30.1,29.96,WNW,294,0.0,1.0,94,0.00,,,0.00,WeatherCatV1.02B3,2013-02-16 13:51:00,
2013-02-16 08:56:00,31.6,30.1,29.96,WNW,294,0.0,1.0,94,0.00,,,0.00,WeatherCatV1.02B3,2013-02-16 13:56:00,
2013-02-16 09:01:00,31.6,30.1,29.96,WNW,294,0.0,0.0,94,0.00,,,0.00,WeatherCatV1.02B3,2013-02-16 14:01:00,
2013-02-16 09:06:00,31.7,30.2,29.96,WNW,294,0.0,1.0,94,0.00,,,0.00,WeatherCatV1.02B3,2013-02-16 14:06:00,
2013-02-16 09:11:00,31.8,30.3,29.95,NNW,329,2.0,2.0,94,0.00,,,0.00,WeatherCatV1.02B3,2013-02-16 14:11:00,
2013-02-16 09:16:00,31.9,30.4,29.95,NNW,329,0.0,0.0,94,0.00,,,0.00,WeatherCatV1.02B3,2013-02-16 14:16:00,
2013-02-16 09:21:00,32.1,30.6,29.95,NNW,328,0.0,0.0,94,0.00,,,0.00,WeatherCatV1.02B3,2013-02-16 14:21:00,
2013-02-16 09:26:00,32.2,30.7,29.95,NNW,331,2.0,4.0,94,0.00,,,0.00,WeatherCatV1.02B3,2013-02-16 14:26:00,
2013-02-16 09:31:00,32.2,30.7,29.94,NNE,26,0.0,2.0,94,0.00,,,0.01,WeatherCatV1.02B3,2013-02-16 14:31:00,
2013-02-16 09:36:00,32.2,30.4,29.95,NNE,24,0.0,2.0,93,0.00,,,0.01,WeatherCatV1.02B3,2013-02-16 14:36:00,
2013-02-16 09:41:00,32.3,30.5,29.95,NW,313,0.0,0.0,93,0.00,,,0.01,WeatherCatV1.02B3,2013-02-16 14:41:00,
2013-02-16 09:46:00,32.5,30.7,29.94,North,5,0.0,4.0,93,0.00,,,0.01,WeatherCatV1.02B3,2013-02-16 14:46:00,
2013-02-16 09:51:00,32.6,30.8,29.94,WNW,284,0.0,3.0,93,0.00,,,0.02,WeatherCatV1.02B3,2013-02-16 14:51:00,
2013-02-16 09:56:00,32.8,30.7,29.94,NNE,31,2.0,4.0,92,0.00,,,0.02,WeatherCatV1.02B3,2013-02-16 14:56:00,
2013-02-16 10:01:00,33.0,30.7,29.94,WNW,299,5.0,5.0,91,0.00,,,0.02,WeatherCatV1.02B3,2013-02-16 15:01:00,
2013-02-16 10:06:00,32.9,30.3,29.94,NNW,347,7.0,8.0,90,0.00,,,0.02,WeatherCatV1.02B3,2013-02-16 15:06:00,
2013-02-16 10:11:00,32.9,30.0,29.94,WNW,298,6.0,7.0,89,0.00,,,0.02,WeatherCatV1.02B3,2013-02-16 15:11:00,
2013-02-16 10:16:00,33.0,30.1,29.94,NNE,16,0.0,1.0,89,0.00,,,0.03,WeatherCatV1.02B3,2013-02-16 15:16:00,
2013-02-16 10:21:00,33.3,30.1,29.94,WNW,286,0.0,4.0,88,0.00,,,0.03,WeatherCatV1.02B3,2013-02-16 15:21:00,
2013-02-16 10:26:00,33.6,30.4,29.94,North,355,0.0,3.0,88,0.00,,,0.03,WeatherCatV1.02B3,2013-02-16 15:26:00,
2013-02-16 10:31:00,33.7,30.0,29.94,North,355,0.0,0.0,86,0.00,,,0.03,WeatherCatV1.02B3,2013-02-16 15:31:00,
2013-02-16 10:36:00,33.8,30.1,29.94,NNE,29,0.0,1.0,86,0.00,,,0.03,WeatherCatV1.02B3,2013-02-16 15:36:00,
2013-02-16 10:41:00,34.0,30.3,29.94,West,269,0.0,6.0,86,0.00,,,0.03,WeatherCatV1.02B3,2013-02-16 15:41:00,
2013-02-16 10:46:00,34.1,30.1,29.94,NNW,333,1.0,3.0,85,0.00,,,0.03,WeatherCatV1.02B3,2013-02-16 15:46:00,
2013-02-16 10:51:00,34.3,30.0,29.94,NNW,329,0.0,3.0,84,0.00,,,0.03,WeatherCatV1.02B3,2013-02-16 15:51:00,
2013-02-16 10:56:00,34.3,29.4,29.94,NNW,348,6.0,6.0,82,0.00,,,0.04,WeatherCatV1.02B3,2013-02-16 15:56:00,
2013-02-16 11:01:00,34.3,29.4,29.94,NW,312,0.0,7.0,82,0.00,,,0.04,WeatherCatV1.02B3,2013-02-16 16:01:00,
2013-02-16 11:06:00,34.3,29.4,29.93,NW,319,2.0,5.0,82,0.00,,,0.04,WeatherCatV1.02B3,2013-02-16 16:06:00,
2013-02-16 11:11:00,34.3,29.1,29.93,NW,306,0.0,4.0,81,0.00,,,0.04,WeatherCatV1.02B3,2013-02-16 16:11:00,
2013-02-16 11:16:00,34.2,29.3,29.93,WNW,302,4.0,7.0,82,0.00,,,0.04,WeatherCatV1.02B3,2013-02-16 16:16:00,
2013-02-16 11:21:00,34.3,29.4,29.93,North,9,1.0,2.0,82,0.00,,,0.04,WeatherCatV1.02B3,2013-02-16 16:21:00,
2013-02-16 11:26:00,34.4,29.8,29.93,NW,325,0.0,3.0,83,0.00,,,0.04,WeatherCatV1.02B3,2013-02-16 16:26:00,
2013-02-16 11:31:00,34.5,29.6,29.93,NW,317,0.0,3.0,82,0.00,,,0.04,WeatherCatV1.02B3,2013-02-16 16:31:00,
2013-02-16 11:36:00,34.4,29.5,29.92,NW,313,0.0,2.0,82,0.00,,,0.04,WeatherCatV1.02B3,2013-02-16 16:36:00,
2013-02-16 11:41:00,34.5,29.6,29.92,NNW,327,0.0,4.0,82,0.00,,,0.04,WeatherCatV1.02B3,2013-02-16 16:41:00,
2013-02-16 11:46:00,34.5,29.3,29.92,NNW,335,3.0,5.0,81,0.00,,,0.04,WeatherCatV1.02B3,2013-02-16 16:46:00,
2013-02-16 11:51:00,34.8,29.9,29.92,North,355,1.0,4.0,82,0.00,,,0.04,WeatherCatV1.02B3,2013-02-16 16:51:00,
2013-02-16 11:56:00,35.1,29.9,29.91,North,355,0.0,5.0,81,0.00,,,0.04,WeatherCatV1.02B3,2013-02-16 16:56:00,
2013-02-16 12:01:00,34.8,29.9,29.91,NNE,14,0.0,2.0,82,0.00,,,0.04,WeatherCatV1.02B3,2013-02-16 17:01:00,
2013-02-16 12:06:00,34.8,29.9,29.91,NE,34,3.0,5.0,82,0.00,,,0.04,WeatherCatV1.02B3,2013-02-16 17:06:00,
2013-02-16 12:13:00,34.7,29.8,29.91,NNW,346,0.0,4.0,82,0.00,,,0.04,WeatherCatV1.02B3,2013-02-16 17:13:00,
2013-02-16 12:18:00,34.6,29.7,29.91,NE,44,3.0,7.0,82,0.00,,,0.04,WeatherCatV1.02B3,2013-02-16 17:18:00,
2013-02-16 12:23:00,34.6,29.4,29.90,NNE,25,5.0,5.0,81,0.00,,,0.04,WeatherCatV1.02B3,2013-02-16 17:23:00,
2013-02-16 12:28:00,34.7,29.5,29.90,NE,36,3.0,5.0,81,0.00,,,0.04,WeatherCatV1.02B3,2013-02-16 17:28:00,
2013-02-16 12:33:00,34.8,29.6,29.91,NNE,32,0.0,0.0,81,0.00,,,0.04,WeatherCatV1.02B3,2013-02-16 17:33:00,
2013-02-16 12:38:00,34.8,29.3,29.90,NE,36,2.0,4.0,80,0.00,,,0.04,WeatherCatV1.02B3,2013-02-16 17:38:00,
2013-02-16 12:43:00,34.9,29.4,29.90,NNE,15,0.0,1.0,80,0.00,,,0.04,WeatherCatV1.02B3,2013-02-16 17:43:00,
2013-02-16 12:48:00,34.9,29.4,29.90,NE,40,2.0,3.0,80,0.00,,,0.04,WeatherCatV1.02B3,2013-02-16 17:48:00,
2013-02-16 12:53:00,35.0,29.5,29.90,NW,321,4.0,4.0,80,0.00,,,0.04,WeatherCatV1.02B3,2013-02-16 17:53:00,
2013-02-16 12:58:00,35.0,29.2,29.90,WNW,294,0.0,4.0,79,0.00,,,0.04,WeatherCatV1.02B3,2013-02-16 17:58:00,
2013-02-16 13:03:00,35.0,29.5,29.90,WNW,294,0.0,0.0,80,0.00,,,0.04,WeatherCatV1.02B3,2013-02-16 18:03:00,
2013-02-16 13:08:00,35.2,29.7,29.90,WNW,294,0.0,0.0,80,0.00,,,0.04,WeatherCatV1.02B3,2013-02-16 18:08:00,
2013-02-16 13:13:00,35.2,29.7,29.90,NE,36,0.0,2.0,80,0.00,,,0.04,WeatherCatV1.02B3,2013-02-16 18:13:00,
2013-02-16 13:18:00,35.2,30.0,29.90,NE,36,0.0,1.0,81,0.00,,,0.04,WeatherCatV1.02B3,2013-02-16 18:18:00,
2013-02-16 13:23:00,35.1,29.9,29.89,ENE,57,0.0,0.0,81,0.00,,,0.04,WeatherCatV1.02B3,2013-02-16 18:23:00,
2013-02-16 13:28:00,35.1,30.2,29.89,NNE,32,0.0,3.0,82,0.00,,,0.04,WeatherCatV1.02B3,2013-02-16 18:28:00,
2013-02-16 13:33:00,35.0,29.8,29.89,NW,318,0.0,2.0,81,0.00,,,0.04,WeatherCatV1.02B3,2013-02-16 18:33:00,
2013-02-16 13:38:00,35.0,30.1,29.89,NW,318,0.0,0.0,82,0.00,,,0.04,WeatherCatV1.02B3,2013-02-16 18:38:00,
2013-02-16 13:43:00,35.1,29.9,29.88,NW,318,0.0,1.0,81,0.00,,,0.04,WeatherCatV1.02B3,2013-02-16 18:43:00,
2013-02-16 13:48:00,35.3,30.1,29.89,NE,34,2.0,4.0,81,0.00,,,0.04,WeatherCatV1.02B3,2013-02-16 18:48:00,
2013-02-16 13:53:00,35.3,29.8,29.88,NE,47,0.0,4.0,80,0.00,,,0.04,WeatherCatV1.02B3,2013-02-16 18:53:00,
2013-02-16 13:58:00,35.3,30.1,29.88,NNE,33,2.0,4.0,81,0.00,,,0.04,WeatherCatV1.02B3,2013-02-16 18:58:00,
2013-02-16 14:03:00,35.3,29.8,29.88,NE,36,0.0,1.0,80,0.00,,,0.04,WeatherCatV1.02B3,2013-02-16 19:03:00,
2013-02-16 14:08:00,35.2,29.7,29.88,NE,36,0.0,0.0,80,0.00,,,0.04,WeatherCatV1.02B3,2013-02-16 19:08:00,
2013-02-16 14:13:00,35.1,29.6,29.88,WNW,301,2.0,3.0,80,0.00,,,0.04,WeatherCatV1.02B3,2013-02-16 19:13:00,
2013-02-16 14:18:00,35.2,29.7,29.88,WNW,302,0.0,0.0,80,0.00,,,0.04,WeatherCatV1.02B3,2013-02-16 19:18:00,
2013-02-16 14:23:00,35.3,29.5,29.87,NE,43,0.0,4.0,79,0.00,,,0.04,WeatherCatV1.02B3,2013-02-16 19:23:00,
2013-02-16 14:28:00,35.4,29.5,29.87,NE,54,0.0,1.0,79,0.00,,,0.04,WeatherCatV1.02B3,2013-02-16 19:28:00,
2013-02-16 14:33:00,35.6,29.7,29.87,North,0,3.0,4.0,79,0.00,,,0.04,WeatherCatV1.02B3,2013-02-16 19:33:00,
2013-02-16 14:38:00,35.8,29.9,29.87,NNE,30,0.0,1.0,79,0.00,,,0.04,WeatherCatV1.02B3,2013-02-16 19:38:00,
2013-02-16 14:43:00,35.9,29.4,29.87,NNW,329,0.0,0.0,77,0.00,,,0.04,WeatherCatV1.02B3,2013-02-16 19:43:00,
2013-02-16 14:48:00,35.9,29.4,29.87,NNW,338,0.0,1.0,77,0.00,,,0.04,WeatherCatV1.02B3,2013-02-16 19:48:00,
2013-02-16 14:53:00,35.9,29.1,29.87,NW,322,0.0,0.0,76,0.00,,,0.04,WeatherCatV1.02B3,2013-02-16 19:53:00,
2013-02-16 14:58:00,36.0,29.5,29.87,NW,322,0.0,1.0,77,0.00,,,0.04,WeatherCatV1.02B3,2013-02-16 19:58:00,
2013-02-16 15:03:00,36.0,29.2,29.87,NW,306,1.0,3.0,76,0.00,,,0.04,WeatherCatV1.02B3,2013-02-16 20:03:00,
2013-02-16 15:08:00,36.0,28.9,29.87,NW,306,1.0,1.0,75,0.00,,,0.04,WeatherCatV1.02B3,2013-02-16 20:08:00,
2013-02-16 15:13:00,36.0,28.9,29.87,NW,304,3.0,5.0,75,0.00,,,0.04,WeatherCatV1.02B3,2013-02-16 20:13:00,
2013-02-16 15:18:00,36.0,28.5,29.86,NE,34,3.0,3.0,74,0.00,,,0.04,WeatherCatV1.02B3,2013-02-16 20:18:00,
2013-02-16 15:23:00,36.1,28.6,29.86,West,281,0.0,3.0,74,0.00,,,0.04,WeatherCatV1.02B3,2013-02-16 20:23:00,
2013-02-16 15:28:00,36.1,28.3,29.86,NNE,32,0.0,0.0,73,0.00,,,0.04,WeatherCatV1.02B3,2013-02-16 20:28:00,
2013-02-16 15:33:00,36.1,28.3,29.86,NW,325,2.0,5.0,73,0.00,,,0.04,WeatherCatV1.02B3,2013-02-16 20:33:00,
2013-02-16 15:36:00,36.2,28.4,29.86,NW,315,0.0,4.0,73,0.00,,,0.04,WeatherCatV1.02B3,2013-02-16 20:36:00,
2013-02-16 15:41:00,36.2,28.4,29.86,WNW,302,3.0,4.0,73,0.00,,,0.04,WeatherCatV1.02B3,2013-02-16 20:41:00,
2013-02-16 15:46:00,36.1,28.3,29.85,NNW,346,4.0,4.0,73,0.00,,,0.04,WeatherCatV1.02B3,2013-02-16 20:46:00,
2013-02-16 15:51:00,36.2,28.4,29.85,NNE,15,0.0,1.0,73,0.00,,,0.04,WeatherCatV1.02B3,2013-02-16 20:51:00,
2013-02-16 15:56:00,36.1,28.0,29.85,North,11,0.0,4.0,72,0.00,,,0.04,WeatherCatV1.02B3,2013-02-16 20:56:00,
2013-02-16 16:01:00,36.1,28.0,29.85,NE,44,1.0,5.0,72,0.00,,,0.04,WeatherCatV1.02B3,2013-02-16 21:01:00,
2013-02-16 16:06:00,36.1,28.0,29.85,NE,49,2.0,4.0,72,0.00,,,0.04,WeatherCatV1.02B3,2013-02-16 21:06:00,
2013-02-16 16:11:00,36.0,27.9,29.84,NNW,344,0.0,4.0,72,0.00,,,0.04,WeatherCatV1.02B3,2013-02-16 21:11:00,
2013-02-16 16:16:00,36.0,27.9,29.84,NNW,343,0.0,0.0,72,0.00,,,0.04,WeatherCatV1.02B3,2013-02-16 21:16:00,
2013-02-16 16:21:00,36.0,27.9,29.84,NNE,13,2.0,3.0,72,0.00,,,0.04,WeatherCatV1.02B3,2013-02-16 21:21:00,
2013-02-16 16:26:00,36.0,27.9,29.84,NW,323,0.0,0.0,72,0.00,,,0.04,WeatherCatV1.02B3,2013-02-16 21:26:00,
2013-02-16 16:31:00,35.9,27.8,29.84,NNE,25,0.0,3.0,72,0.00,,,0.04,WeatherCatV1.02B3,2013-02-16 21:31:00,
2013-02-16 16:36:00,35.8,27.7,29.83,North,5,0.0,0.0,72,0.00,,,0.04,WeatherCatV1.02B3,2013-02-16 21:36:00,
2013-02-16 16:41:00,35.8,27.7,29.83,NNE,15,0.0,3.0,72,0.00,,,0.04,WeatherCatV1.02B3,2013-02-16 21:41:00,
2013-02-16 16:46:00,35.7,28.2,29.84,NNE,15,0.0,1.0,74,0.00,,,0.04,WeatherCatV1.02B3,2013-02-16 21:46:00,
2013-02-16 16:51:00,35.7,27.9,29.84,NNE,15,0.0,0.0,73,0.00,,,0.04,WeatherCatV1.02B3,2013-02-16 21:51:00,
2013-02-16 16:56:00,35.6,28.1,29.84,NNE,15,0.0,1.0,74,0.00,,,0.04,WeatherCatV1.02B3,2013-02-16 21:56:00,
2013-02-16 17:01:00,35.5,28.0,29.84,NNE,15,0.0,0.0,74,0.00,,,0.04,WeatherCatV1.02B3,2013-02-16 22:01:00,
2013-02-16 17:06:00,35.5,28.0,29.84,NE,53,3.0,3.0,74,0.00,,,0.04,WeatherCatV1.02B3,2013-02-16 22:06:00,
2013-02-16 17:11:00,35.4,28.0,29.84,NE,43,0.0,2.0,74,0.00,,,0.04,WeatherCatV1.02B3,2013-02-16 22:11:00,
2013-02-16 17:16:00,35.3,27.9,29.84,NE,43,0.0,0.0,74,0.00,,,0.04,WeatherCatV1.02B3,2013-02-16 22:16:00,
2013-02-16 17:21:00,35.2,27.8,29.84,NE,43,0.0,0.0,74,0.00,,,0.04,WeatherCatV1.02B3,2013-02-16 22:21:00,
2013-02-16 17:26:00,35.1,28.0,29.84,NE,43,0.0,0.0,75,0.00,,,0.04,WeatherCatV1.02B3,2013-02-16 22:26:00,
2013-02-16 17:31:00,35.0,27.9,29.84,NE,43,0.0,0.0,75,0.00,,,0.04,WeatherCatV1.02B3,2013-02-16 22:31:00,
2013-02-16 17:36:00,34.9,27.8,29.84,NE,43,0.0,2.0,75,0.00,,,0.04,WeatherCatV1.02B3,2013-02-16 22:36:00,
2013-02-16 17:41:00,34.9,27.8,29.84,NE,43,0.0,0.0,75,0.00,,,0.04,WeatherCatV1.02B3,2013-02-16 22:41:00,
2013-02-16 17:46:00,34.9,28.1,29.85,NNW,340,0.0,2.0,76,0.00,,,0.04,WeatherCatV1.02B3,2013-02-16 22:46:00,
2013-02-16 17:51:00,34.8,28.0,29.85,NNW,340,0.0,1.0,76,0.00,,,0.04,WeatherCatV1.02B3,2013-02-16 22:51:00,
2013-02-16 17:56:00,34.8,27.7,29.85,NNW,333,1.0,1.0,75,0.00,,,0.04,WeatherCatV1.02B3,2013-02-16 22:56:00,
2013-02-16 18:01:00,34.8,28.0,29.85,WNW,292,0.0,1.0,76,0.00,,,0.04,WeatherCatV1.02B3,2013-02-16 23:01:00,
2013-02-16 18:06:00,34.8,28.7,29.85,WNW,292,0.0,2.0,78,0.00,,,0.04,WeatherCatV1.02B3,2013-02-16 23:06:00,
2013-02-16 18:11:00,34.7,27.9,29.85,WNW,292,0.0,0.0,76,0.00,,,0.04,WeatherCatV1.02B3,2013-02-16 23:11:00,
2013-02-16 18:16:00,34.7,27.6,29.85,WNW,300,1.0,6.0,75,0.00,,,0.04,WeatherCatV1.02B3,2013-02-16 23:16:00,
2013-02-16 18:21:00,34.8,27.7,29.85,NNE,15,2.0,8.0,75,0.00,,,0.04,WeatherCatV1.02B3,2013-02-16 23:21:00,
2013-02-16 18:26:00,34.8,27.7,29.85,NNE,33,5.0,5.0,75,0.00,,,0.04,WeatherCatV1.02B3,2013-02-16 23:26:00,
2013-02-16 18:31:00,34.7,27.3,29.85,WNW,294,0.0,4.0,74,0.00,,,0.04,WeatherCatV1.02B3,2013-02-16 23:31:00,
2013-02-16 18:36:00,34.6,27.5,29.85,North,355,3.0,4.0,75,0.00,,,0.04,WeatherCatV1.02B3,2013-02-16 23:36:00,
2013-02-16 18:41:00,34.5,26.8,29.85,North,9,2.0,4.0,73,0.00,,,0.04,WeatherCatV1.02B3,2013-02-16 23:41:00,
2013-02-16 18:46:00,34.2,26.1,29.85,NE,43,1.0,4.0,72,0.00,,,0.04,WeatherCatV1.02B3,2013-02-16 23:46:00,
2013-02-16 18:51:00,34.1,26.0,29.85,NNW,341,3.0,5.0,72,0.00,,,0.04,WeatherCatV1.02B3,2013-02-16 23:51:00,
2013-02-16 18:56:00,33.9,25.5,29.85,NNE,15,0.0,2.0,71,0.00,,,0.04,WeatherCatV1.02B3,2013-02-16 23:56:00,
2013-02-16 19:01:00,33.8,25.7,29.85,NNE,16,2.0,9.0,72,0.00,,,0.04,WeatherCatV1.02B3,2013-02-17 00:01:00,
2013-02-16 19:06:00,33.6,25.6,29.84,North,10,3.0,4.0,72,0.00,,,0.04,WeatherCatV1.02B3,2013-02-17 00:06:00,
2013-02-16 19:11:00,33.5,25.5,29.84,NNE,30,0.0,5.0,72,0.00,,,0.04,WeatherCatV1.02B3,2013-02-17 00:11:00,
2013-02-16 19:16:00,33.5,24.8,29.84,WNW,288,0.0,1.0,70,0.00,,,0.04,WeatherCatV1.02B3,2013-02-17 00:16:00,
2013-02-16 19:21:00,33.5,24.8,29.84,North,355,1.0,1.0,70,0.00,,,0.04,WeatherCatV1.02B3,2013-02-17 00:21:00,
2013-02-16 19:26:00,33.4,24.7,29.83,NE,34,0.0,5.0,70,0.00,,,0.04,WeatherCatV1.02B3,2013-02-17 00:26:00,
2013-02-16 19:31:00,33.4,23.6,29.83,North,9,1.0,4.0,67,0.00,,,0.04,WeatherCatV1.02B3,2013-02-17 00:31:00,
2013-02-16 19:36:00,33.4,23.3,29.83,NE,35,3.0,3.0,66,0.00,,,0.04,WeatherCatV1.02B3,2013-02-17 00:36:00,
2013-02-16 19:41:00,33.4,23.3,29.83,NNE,13,0.0,3.0,66,0.00,,,0.04,WeatherCatV1.02B3,2013-02-17 00:41:00,
2013-02-16 19:46:00,33.3,22.8,29.83,NNE,21,3.0,8.0,65,0.00,,,0.04,WeatherCatV1.02B3,2013-02-17 00:46:00,
2013-02-16 19:51:00,33.3,22.8,29.82,NE,43,0.0,2.0,65,0.00,,,0.04,WeatherCatV1.02B3,2013-02-17 00:51:00,
2013-02-16 19:56:00,33.3,22.8,29.82,North,9,0.0,5.0,65,0.00,,,0.04,WeatherCatV1.02B3,2013-02-17 00:56:00,
2013-02-16 20:01:00,33.2,22.4,29.81,North,355,3.0,7.0,64,0.00,,,0.04,WeatherCatV1.02B3,2013-02-17 01:01:00,
2013-02-16 20:06:00,33.1,22.6,29.82,NE,35,0.0,5.0,65,0.00,,,0.04,WeatherCatV1.02B3,2013-02-17 01:06:00,
2013-02-16 20:11:00,33.0,21.8,29.81,NW,313,0.0,9.0,63,0.00,,,0.04,WeatherCatV1.02B3,2013-02-17 01:11:00,
2013-02-16 20:16:00,32.9,21.7,29.82,NNE,19,3.0,7.0,63,0.00,,,0.04,WeatherCatV1.02B3,2013-02-17 01:16:00,
2013-02-16 20:21:00,32.8,21.6,29.82,North,5,4.0,4.0,63,0.00,,,0.04,WeatherCatV1.02B3,2013-02-17 01:21:00,
2013-02-16 20:26:00,32.8,22.0,29.81,NW,313,0.0,0.0,64,0.00,,,0.04,WeatherCatV1.02B3,2013-02-17 01:26:00,
2013-02-16 20:31:00,32.7,21.9,29.81,North,9,1.0,4.0,64,0.00,,,0.04,WeatherCatV1.02B3,2013-02-17 01:31:00,
2013-02-16 20:36:00,32.5,21.3,29.82,NNW,336,0.0,0.0,63,0.00,,,0.04,WeatherCatV1.02B3,2013-02-17 01:36:00,
2013-02-16 20:41:00,32.4,20.9,29.82,North,5,0.0,7.0,62,0.00,,,0.04,WeatherCatV1.02B3,2013-02-17 01:41:00,
2013-02-16 20:46:00,32.3,20.8,29.82,NW,305,0.0,4.0,62,0.00,,,0.04,WeatherCatV1.02B3,2013-02-17 01:46:00,
2013-02-16 20:51:00,32.1,20.2,29.82,NNE,14,1.0,3.0,61,0.00,,,0.04,WeatherCatV1.02B3,2013-02-17 01:51:00,
2013-02-16 20:56:00,32.0,20.5,29.82,NE,41,2.0,4.0,62,0.00,,,0.04,WeatherCatV1.02B3,2013-02-17 01:56:00,
2013-02-16 21:01:00,31.9,20.4,29.81,North,0,0.0,2.0,62,0.00,,,0.04,WeatherCatV1.02B3,2013-02-17 02:01:00,
2013-02-16 21:06:00,31.8,19.5,29.81,NNE,27,1.0,8.0,60,0.00,,,0.04,WeatherCatV1.02B3,2013-02-17 02:06:00,
2013-02-16 21:11:00,31.7,19.4,29.82,NNE,22,3.0,7.0,60,0.00,,,0.04,WeatherCatV1.02B3,2013-02-17 02:11:00,
2013-02-16 21:16:00,31.5,19.2,29.82,NE,38,4.0,6.0,60,0.00,,,0.04,WeatherCatV1.02B3,2013-02-17 02:16:00,
2013-02-16 21:21:00,31.4,19.5,29.82,NNE,24,0.0,8.0,61,0.00,,,0.04,WeatherCatV1.02B3,2013-02-17 02:21:00,
2013-02-16 21:26:00,31.4,19.1,29.82,NE,40,0.0,3.0,60,0.00,,,0.04,WeatherCatV1.02B3,2013-02-17 02:26:00,
2013-02-16 21:31:00,31.3,19.4,29.81,NNE,30,2.0,4.0,61,0.00,,,0.04,WeatherCatV1.02B3,2013-02-17 02:31:00,
2013-02-16 21:36:00,31.2,19.0,29.81,NE,36,0.0,7.0,60,0.00,,,0.04,WeatherCatV1.02B3,2013-02-17 02:36:00,
2013-02-16 21:41:00,31.1,18.9,29.81,NW,309,4.0,8.0,60,0.00,,,0.04,WeatherCatV1.02B3,2013-02-17 02:41:00,
2013-02-16 21:46:00,31.0,18.8,29.81,NNW,342,3.0,5.0,60,0.00,,,0.04,WeatherCatV1.02B3,2013-02-17 02:46:00,
2013-02-16 21:51:00,30.9,18.7,29.80,ENE,61,2.0,6.0,60,0.00,,,0.04,WeatherCatV1.02B3,2013-02-17 02:51:00,
2013-02-16 21:56:00,30.8,19.0,29.80,NNE,30,3.0,7.0,61,0.00,,,0.04,WeatherCatV1.02B3,2013-02-17 02:56:00,
2013-02-16 22:01:00,30.7,18.9,29.80,NNE,24,4.0,7.0,61,0.00,,,0.04,WeatherCatV1.02B3,2013-02-17 03:01:00,
2013-02-16 22:06:00,30.6,18.4,29.80,ENE,65,5.0,9.0,60,0.00,,,0.04,WeatherCatV1.02B3,2013-02-17 03:06:00,
2013-02-16 22:11:00,30.5,18.7,29.79,NNW,331,4.0,11.0,61,0.00,,,0.04,WeatherCatV1.02B3,2013-02-17 03:11:00,
2013-02-16 22:16:00,30.4,19.0,29.79,NNE,32,4.0,5.0,62,0.00,,,0.04,WeatherCatV1.02B3,2013-02-17 03:16:00,
2013-02-16 22:21:00,30.3,18.9,29.79,NNE,13,0.0,5.0,62,0.00,,,0.04,WeatherCatV1.02B3,2013-02-17 03:21:00,
2013-02-16 22:26:00,30.2,18.8,29.78,North,9,0.0,5.0,62,0.00,,,0.04,WeatherCatV1.02B3,2013-02-17 03:26:00,
2013-02-16 22:31:00,30.2,19.5,29.78,NW,316,1.0,9.0,64,0.00,,,0.04,WeatherCatV1.02B3,2013-02-17 03:31:00,
2013-02-16 22:36:00,30.0,19.3,29.77,NNE,17,0.0,9.0,64,0.00,,,0.04,WeatherCatV1.02B3,2013-02-17 03:36:00,
2013-02-16 22:41:00,29.9,19.2,29.76,North,11,2.0,6.0,64,0.00,,,0.04,WeatherCatV1.02B3,2013-02-17 03:41:00,
2013-02-16 22:46:00,29.7,19.4,29.76,NNE,18,8.0,8.0,65,0.00,,,0.04,WeatherCatV1.02B3,2013-02-17 03:46:00,
2013-02-16 22:51:00,29.6,18.9,29.76,North,355,2.0,8.0,64,0.00,,,0.04,WeatherCatV1.02B3,2013-02-17 03:51:00,
2013-02-16 22:56:00,29.5,19.6,29.77,NW,325,0.0,4.0,66,0.00,,,0.04,WeatherCatV1.02B3,2013-02-17 03:56:00,
2013-02-16 23:01:00,29.5,19.2,29.76,NNE,15,0.0,5.0,65,0.00,,,0.04,WeatherCatV1.02B3,2013-02-17 04:01:00,
2013-02-16 23:06:00,29.4,19.5,29.75,NNW,327,3.0,5.0,66,0.00,,,0.04,WeatherCatV1.02B3,2013-02-17 04:06:00,
2013-02-16 23:11:00,29.3,19.0,29.76,NNE,22,0.0,0.0,65,0.00,,,0.04,WeatherCatV1.02B3,2013-02-17 04:11:00,
2013-02-16 23:16:00,29.3,19.0,29.76,NNE,23,0.0,5.0,65,0.00,,,0.04,WeatherCatV1.02B3,2013-02-17 04:16:00,
2013-02-16 23:21:00,29.3,18.7,29.75,NNW,329,2.0,7.0,64,0.00,,,0.04,WeatherCatV1.02B3,2013-02-17 04:21:00,
2013-02-16 23:26:00,29.2,18.6,29.75,WNW,292,1.0,10.0,64,0.00,,,0.04,WeatherCatV1.02B3,2013-02-17 04:26:00,
2013-02-16 23:31:00,29.1,18.8,29.76,North,349,3.0,8.0,65,0.00,,,0.04,WeatherCatV1.02B3,2013-02-17 04:31:00,
2013-02-16 23:36:00,29.1,18.8,29.75,NNE,28,0.0,3.0,65,0.00,,,0.04,WeatherCatV1.02B3,2013-02-17 04:36:00,
2013-02-16 23:41:00,29.0,18.7,29.74,North,355,5.0,7.0,65,0.00,,,0.04,WeatherCatV1.02B3,2013-02-17 04:41:00,
2013-02-16 23:46:00,28.8,18.5,29.74,NE,40,2.0,10.0,65,0.00,,,0.04,WeatherCatV1.02B3,2013-02-17 04:46:00,
2013-02-16 23:51:00,28.6,18.7,29.74,NW,319,3.0,9.0,66,0.00,,,0.04,WeatherCatV1.02B3,2013-02-17 04:51:00,
2013-02-16 23:56:00,28.4,19.2,29.73,WNW,300,0.0,9.0,68,0.00,,,0.04,WeatherCatV1.02B3,2013-02-17 04:56:00,